Location: Recife
(8.0585°S, 34.8848°W)
Time: 10:59:07
(UTC-03:00)

Explorer 7 - Pass Details

Date: 15 April 2026
Orbit: 427 x 536 km, 50.2° (Epoch: 14 May)

Event Time Altitude Azimuth Distance (km) Brightness Sun altitude
Rises 12:00:29 0° 205° (SSW) 2,544 10.1 69.3°
Reaches altitude 10° 12:02:44 10° 197° (SSW) 1,682 9.3 69.1°
Maximum altitude 12:06:17 37° 128° (SE) 794 7.9 68.6°
Drops below altitude 10° 12:09:57 10° 60° (ENE) 1,730 9.5 68.1°
Sets 12:12:17 0° 51° (NE) 2,629 10.3 67.7°
